RH
78 82 99 99 100 98 96 96 95 89 88 83 88 79 70 66 65 64 67 69 77 90 96 95 96 96 85 81 82 78 79 80 78 79 83 78 92 99 84 79 74 88 88
65 87 99 98 99 98 94 92 95 89 80 79 95 88 73 68 68 68 72 74 76 91 96 96 96 97 95 88 82 77 77 76 75 75 77 80 93 97 84 84 80 87 89
66 85 98 98 97 96 93 94 94 89 86 88 90 81 78 86 86 86 84 78 80 95 96 96 96 96 95 88 84 80 80 75 73 74 79 85 93 91 88 83 82 84 90
64 77 89 98 95 96 92 95 89 84 90 85 81 82 84 90 89 92 85 90 94 95 95 93 90 90 83 81 78 78 81 78 74 78 87 92 91 90 88 84 87 92 94
65 71 79 99 91 88 89 92 87 81 88 87 82 82 88 93 95 92 90 88 89 84 86 87 85 84 84 81 80 90 82 82 83 87 89 91 88 94 95 94 95 94 98
66 71 81 96 96 93 88 89 86 90 90 85 84 84 86 87 90 86 79 82 84 86 80 81 80 80 81 80 80 76 80 84 92 91 84 79 80 96 96 95 95 95 100
68 77 84 93 97 92 94 86 86 90 91 89 84 82 81 83 81 82 81 82 80 80 78 78 79 77 74 79 78 75 80 88 90 86 79 76 76 96 97 95 95 96 96
55 72 84 89 93 90 86 86 90 91 92 90 85 81 82 86 78 82 81 80 79 80 79 76 78 76 67 78 79 76 83 92 86 77 75 73 76 97 99 97 94 95 90
74 83 87 94 92 88 83 89 89 90 92 90 85 81 83 84 81 84 81 78 63 64 75 75 78 78 65 73 79 86 87 88 86 81 73 74 79 97 97 96 88 89 92
79 85 88 92 92 90 87 85 84 87 88 91 90 85 83 84 84 83 88 84 74 68 65 73 75 80 71 65 79 87 85 83 77 84 74 76 77 98 98 91 93 98 98
86 86 88 89 88 87 88 88 87 88 87 85 91 86 84 83 87 88 91 90 81 72 71 68 78 82 74 77 86 86 81 79 74 78 82 82 87 99 97 98 98 97 95
92 93 89 86 88 92 90 88 87 86 88 88 94 90 85 81 82 85 91 96 92 82 69 75 84 84 79 87 96 88 87 80 76 80 84 88 83 97 93 92 94 93 96
91 91 88 84 80 88 92 88 86 87 91 96 95 92 87 86 85 85 84 88 94 94 80 85 95 91 88 91 96 93 90 80 78 86 97 97 83 90 92 97 98 98 98
90 100 100 90 81 82 83 88 90 88 92 92 92 94 91 91 90 84 80 81 89 98 90 93 100 99 98 97 97 97 93 85 80 96 100 100 96 98 99 99 98 98 99
82 96 100 100 88 67 78 77 86 89 90 92 91 91 91 84 82 85 93 95 95 99 97 100 100 100 100 100 100 99 100 95 99 95 100 100 100 99 98 100 100 100 100
81 91 99 100 100 96 74 84 86 84 81 78 86 81 83 87 88 99 99 100 93 100 98 100 100 100 100 99 100 100 100 100 99 98 100 100 100 99 100 100 100 99 100
87 91 96 99 100 100 100 91 85 80 79 78 78 80 88 93 98 100 99 96 100 100 100 100 100 100 100 100 100 100 100 100 99 99 100 99 100 99 100 100 99 98 98
93 94 98 100 100 100 100 99 84 83 75 82 80 82 90 97 98 100 99 100 100 100 100 100 100 100 100 100 100 100 100 100 100 98 100 96 97 95 93 95 96 96 93
98 97 97 99 100 100 100 100 94 82 78 81 81 87 97 99 97 100 100 100 100 100 100 100 100 98 100 100 100 100 100 100 99 98 95 94 92 92 92 90 90 91 90
97 98 97 99 100 99 100 100 100 91 88 83 83 93 99 100 100 100 100 99 100 100 100 100 98 100 99 100 100 100 100 100 97 96 92 91 88 88 91 90 89 87 88
88 97 98 97 100 99 99 96 99 100 96 88 92 95 100 100 100 100 99 100 100 99 100 100 100 96 100 100 97 98 95 96 93 91 88 86 84 86 85 84 86 88 88
84 95 97 98 100 100 100 99 99 99 100 91 80 98 100 100 100 100 100 100 100 98 100 100 95 99 100 96 90 85 94 85 81 88 87 85 85 84 82 82 84 84 86
84 92 99 98 100 100 92 100 98 99 100 100 100 96 98 100 100 100 100 98 99 100 99 99 96 95 96 97 87 82 89 88 66 70 85 88 88 86 85 85 83 81 82
94 91 98 98 99 100 100 98 100 100 100 100 100 89 95 98 100 100 100 100 93 99 100 98 96 90 91 95 100 87 82 68 78 79 65 74 86 88 87 86 86 86 85
97 98 96 97 96 100 100 100 99 100 98 100 100 98 92 94 98 100 100 100 100 100 100 96 99 96 94 94 84 83 78 78 76 81 83 59 60 70 72 74 74 82 85
96 98 98 96 96 99 99 97 100 100 98 98 98 92 91 89 95 100 100 100 100 100 100 96 97 94 94 89 80 78 79 80 77 62 57 52 53 48 56 62 59 51 52
Wind_Speed
14 24 24 21 20 19 19 19 18 16 15 14 13 12 11 10 10 9 10 10 11 12 11 12 12 12 12 10 9 14 14 12 12 13 18 17 17 20 21 22 23 22 24
16 25 23 21 20 20 20 20 19 18 15 15 13 12 10 10 9 9 10 10 11 11 11 11 11 11 11 11 12 13 13 12 14 15 15 17 20 22 22 21 22 22 24
20 24 23 21 20 21 21 20 20 19 16 14 13 11 10 10 10 10 10 10 10 11 11 11 12 11 12 12 13 13 14 13 14 15 18 20 22 22 22 22 23 23 23
20 24 24 22 21 21 22 21 20 21 17 15 13 12 11 10 11 11 11 10 11 11 13 13 13 13 13 12 12 12 15 15 16 18 20 24 22 22 23 23 23 23 24
20 23 25 23 21 20 20 22 21 20 19 16 14 14 12 11 11 11 12 11 12 12 14 14 14 14 13 12 12 13 15 17 19 22 25 24 23 21 22 22 22 24 25
21 23 25 25 22 21 21 22 21 20 20 17 16 14 13 12 11 12 12 13 13 13 14 14 15 15 14 12 13 14 15 19 21 23 26 23 23 22 22 24 25 27 27
21 24 24 25 23 21 21 21 22 22 19 18 17 15 14 13 12 12 12 13 13 14 14 15 16 16 14 13 13 15 17 20 19 22 23 21 21 22 23 26 27 29 30
23 24 25 23 21 21 21 22 22 20 19 18 17 16 14 14 13 13 13 12 13 13 14 14 16 17 17 16 16 18 20 19 15 21 21 22 23 24 26 29 31 31 30
20 24 26 20 22 20 18 21 19 19 18 17 17 16 15 15 14 14 14 15 15 12 13 14 16 20 20 19 21 22 23 17 19 22 22 24 25 27 28 31 32 32 32
21 23 24 22 22 21 20 18 17 16 17 17 16 16 15 15 14 15 15 14 16 15 15 16 18 21 21 23 23 19 19 20 19 22 24 27 27 29 32 33 33 31 32
21 23 23 21 21 21 20 18 17 17 15 17 17 16 15 16 16 16 16 15 15 15 15 17 19 22 24 25 22 19 18 20 18 20 26 29 29 34 36 35 34 33 33
20 21 22 19 21 20 20 21 18 17 16 19 18 18 17 18 17 17 18 18 17 17 16 18 22 26 26 25 22 19 15 18 20 19 21 32 29 42 38 28 29 29 30
13 17 21 20 18 21 24 23 22 20 18 18 18 18 18 17 16 16 18 19 20 18 17 20 26 29 29 26 22 18 18 21 24 24 23 40 31 24 29 31 32 30 30
26 18 11 18 20 21 23 24 22 20 19 19 19 18 17 15 14 15 18 20 21 22 22 28 31 30 29 26 23 22 21 27 29 33 40 48 36 37 35 35 33 29 28
34 28 19 12 21 22 27 25 24 20 20 19 19 18 18 15 15 15 15 16 24 27 28 35 34 35 31 28 28 29 34 36 33 23 39 46 40 37 33 30 30 28 26
35 36 28 17 10 13 26 28 26 23 20 19 19 17 16 15 17 13 14 18 23 31 34 34 35 37 36 36 37 38 42 41 41 37 36 40 36 31 29 28 27 27 25
34 36 35 24 17 4 10 27 27 24 21 20 20 19 17 17 18 15 17 22 25 34 34 33 38 38 37 39 37 40 42 39 42 40 38 36 33 30 28 27 28 27 25
36 37 35 30 19 11 4 18 28 25 22 21 20 20 19 20 18 18 20 23 29 32 36 32 42 36 34 37 35 36 38 39 40 38 39 40 37 32 28 27 27 27 25
35 36 37 35 31 16 11 8 26 26 25 22 20 21 20 21 20 22 26 29 33 37 36 39 36 42 34 35 37 39 36 34 37 35 36 35 36 35 32 28 27 27 24
34 36 36 36 36 24 18 3 16 25 24 20 18 21 20 21 22 26 30 32 32 36 37 40 43 37 41 41 39 38 34 33 36 32 34 32 31 31 30 31 30 25 22
36 37 38 38 38 33 31 20 4 3 24 22 21 24 23 23 25 28 32 35 36 40 40 44 45 48 38 45 38 33 31 32 31 29 31 31 29 28 27 28 27 25 23
36 38 38 37 37 30 29 22 11 19 9 24 24 26 25 25 26 29 35 31 34 43 41 45 49 36 35 29 22 27 4 13 22 23 26 24 25 25 26 25 25 24 23
36 38 37 35 33 32 31 26 22 8 7 19 24 26 27 28 27 31 35 32 33 43 45 44 47 48 33 24 30 12 4 3 6 13 18 19 20 21 23 23 23 22 22
36 36 36 36 34 34 33 28 26 14 14 10 27 33 30 29 28 29 34 35 40 36 39 41 40 36 40 39 14 15 10 28 4 3 5 13 14 16 16 17 20 20 19
35 35 37 37 36 38 35 31 27 22 20 18 8 28 34 30 29 31 34 35 37 39 41 45 34 32 31 33 22 24 29 22 18 8 4 5 13 13 13 14 15 16 16
35 37 36 36 33 37 37 35 31 28 27 25 16 15 29 32 31 31 34 37 38 37 41 46 40 36 33 27 24 30 32 17 15 12 4 11 11 11 14 14 14 15 15
Wind_Direction
195 174 172 167 165 162 159 156 152 151 156 154 156 158 155 154 154 153 152 152 152 152 157 160 160 160 169 164 161 169 164 167 162 159 159 167 151 141 143 141 139 133 136
172 170 171 168 165 165 164 158 158 159 163 159 158 160 156 159 162 164 163 161 162 162 167 167 165 168 171 168 168 171 177 176 168 167 162 162 154 145 146 142 140 137 138
167 170 169 171 171 170 166 163 164 163 167 161 162 164 165 168 170 172 170 172 173 174 175 175 172 172 174 177 178 182 185 183 172 168 163 158 148 147 145 145 144 144 140
170 173 173 173 175 172 170 167 170 168 174 170 167 167 175 178 183 184 178 185 181 186 183 184 180 179 179 184 182 185 185 185 175 167 160 152 150 147 147 148 144 142 139
176 178 177 173 174 176 173 174 173 173 178 176 174 174 181 183 190 189 191 189 191 194 192 189 187 184 180 186 179 176 176 172 168 164 158 155 151 148 148 146 142 140 135
177 181 179 176 174 179 185 180 175 180 182 178 177 181 186 185 189 193 196 195 197 193 194 193 190 190 184 180 177 171 169 163 161 164 162 162 156 150 145 142 140 138 131
180 183 181 181 178 181 187 183 183 184 182 182 180 186 189 185 184 189 190 195 197 196 195 194 191 187 178 177 173 168 163 160 156 165 164 163 157 149 144 139 136 134 131
185 181 182 181 185 186 186 186 188 186 185 185 186 189 192 190 189 188 194 192 190 194 194 195 193 189 185 177 171 168 165 165 175 170 167 164 163 153 147 140 137 133 131
189 179 179 181 185 187 188 192 194 190 191 191 193 194 195 196 196 196 200 197 190 183 186 191 191 194 189 182 168 169 170 176 169 172 176 173 168 154 148 141 136 129 124
192 189 181 178 184 190 190 193 196 197 199 196 197 197 199 199 198 197 205 204 206 206 200 195 195 198 194 190 181 178 181 177 175 182 185 182 174 155 146 138 134 130 126
194 192 188 187 183 194 196 197 199 201 203 205 201 201 201 203 203 201 207 205 204 201 200 197 194 197 191 187 184 187 192 171 172 186 189 178 172 154 138 133 128 125 125
197 194 192 196 193 193 200 201 204 208 207 209 206 204 205 207 206 206 209 210 210 209 203 193 184 187 189 183 182 185 182 161 165 179 183 172 154 121 134 136 138 132 128
341 207 201 199 199 202 201 205 210 214 214 208 209 209 208 208 207 210 213 212 209 209 200 184 181 184 184 181 179 170 168 155 156 139 131 159 162 141 132 136 128 129 128
356 11 339 223 203 205 207 209 211 212 207 207 207 207 208 212 214 219 226 218 204 196 194 186 185 184 180 177 176 166 156 150 147 133 126 151 142 134 132 131 129 125 121
360 353 348 335 227 224 209 206 205 204 200 201 199 202 207 212 229 238 221 206 194 191 182 168 169 163 162 159 151 150 141 138 132 122 122 127 129 129 128 121 121 120 119
353 350 349 347 346 226 217 201 194 193 197 203 199 206 210 216 228 215 200 191 192 188 182 165 157 154 150 149 132 126 128 124 127 119 108 117 122 123 122 121 119 117 118
351 348 352 348 345 299 236 190 193 190 196 203 208 212 218 223 224 201 197 194 186 186 173 156 150 143 136 135 127 124 125 123 126 120 115 114 119 119 119 120 120 119 120
354 352 349 351 351 2 289 212 200 196 201 206 215 222 226 216 212 198 190 183 175 165 147 133 134 122 116 118 111 113 119 125 124 123 123 119 116 116 119 121 120 121 124
355 352 351 352 355 10 347 212 201 196 195 204 216 224 222 211 201 193 181 165 154 148 143 136 128 127 115 109 109 113 114 114 123 123 119 120 122 124 124 124 124 123 124
357 358 354 353 356 13 11 33 204 190 191 202 218 213 213 208 198 189 174 159 149 145 139 136 130 124 126 119 109 108 109 113 113 118 118 123 123 122 128 125 122 122 123
359 1 357 353 352 7 7 6 65 320 191 195 202 208 204 203 195 189 179 160 153 148 143 141 135 133 122 123 107 89 89 104 110 115 120 120 123 130 131 129 125 124 123
358 356 356 355 351 2 1 349 331 305 225 202 198 207 204 198 192 189 182 164 157 153 150 148 145 132 129 132 132 116 80 70 89 102 113 122 128 132 130 131 133 132 131
360 355 351 352 352 356 3 351 360 34 253 190 196 200 207 204 192 186 178 170 160 159 155 153 151 147 147 142 140 131 137 146 137 76 109 125 132 133 130 136 138 139 141
354 354 351 350 357 356 4 1 0 359 331 330 203 199 205 207 204 198 189 180 182 166 160 160 160 156 154 159 169 155 144 150 133 124 106 124 137 144 143 141 144 144 148
353 356 353 352 357 358 1 5 351 355 333 329 250 201 200 204 209 207 199 184 176 175 172 166 172 169 168 165 163 141 129 141 130 132 139 165 139 149 158 165 164 162 161
354 357 358 354 351 358 358 9 357 351 341 351 357 210 192 199 208 210 206 196 186 181 177 177 180 179 177 176 163 156 154 162 160 146 121 154 144 150 161 172 173 169 170